Index of /20260501/WXO-DD/model_rdps/10km/12/078
Name Last modified Size Description
Parent Directory -
20260501T12Z_MSC_RDPS_AbsoluteVorticity_IsbL-0250_RLatLon0.09_PT078H.grib2 2026-05-01 15:20 612K
20260501T12Z_MSC_RDPS_AbsoluteVorticity_IsbL-0500_RLatLon0.09_PT078H.grib2 2026-05-01 15:20 563K
20260501T12Z_MSC_RDPS_AbsoluteVorticity_IsbL-0700_RLatLon0.09_PT078H.grib2 2026-05-01 15:20 621K
20260501T12Z_MSC_RDPS_AbsoluteVorticity_IsbL-0850_RLatLon0.09_PT078H.grib2 2026-05-01 15:20 797K
20260501T12Z_MSC_RDPS_AirTemp_AGL-120m_RLatLon0.09_PT078H.grib2 2026-05-01 15:20 396K
20260501T12Z_MSC_RDPS_AirTemp_AGL-2m_RLatLon0.09_PT078H.grib2 2026-05-01 15:20 635K
20260501T12Z_MSC_RDPS_AirTemp_AGL-40m_RLatLon0.09_PT078H.grib2 2026-05-01 15:20 406K
20260501T12Z_MSC_RDPS_AirTemp_AGL-80m_RLatLon0.09_PT078H.grib2 2026-05-01 15:20 401K
20260501T12Z_MSC_RDPS_AirTemp_IsbL-0001_RLatLon0.09_PT078H.grib2 2026-05-01 15:20 333K
20260501T12Z_MSC_RDPS_AirTemp_IsbL-0005_RLatLon0.09_PT078H.grib2 2026-05-01 15:20 289K
20260501T12Z_MSC_RDPS_AirTemp_IsbL-0010_RLatLon0.09_PT078H.grib2 2026-05-01 15:20 301K
20260501T12Z_MSC_RDPS_AirTemp_IsbL-0020_RLatLon0.09_PT078H.grib2 2026-05-01 15:20 416K
20260501T12Z_MSC_RDPS_AirTemp_IsbL-0030_RLatLon0.09_PT078H.grib2 2026-05-01 15:20 338K
20260501T12Z_MSC_RDPS_AirTemp_IsbL-0050_RLatLon0.09_PT078H.grib2 2026-05-01 15:20 319K
20260501T12Z_MSC_RDPS_AirTemp_IsbL-0100_RLatLon0.09_PT078H.grib2 2026-05-01 15:20 430K
20260501T12Z_MSC_RDPS_AirTemp_IsbL-0150_RLatLon0.09_PT078H.grib2 2026-05-01 15:20 414K
20260501T12Z_MSC_RDPS_AirTemp_IsbL-0175_RLatLon0.09_PT078H.grib2 2026-05-01 15:20 407K
20260501T12Z_MSC_RDPS_AirTemp_IsbL-0200_RLatLon0.09_PT078H.grib2 2026-05-01 15:20 413K
20260501T12Z_MSC_RDPS_AirTemp_IsbL-0225_RLatLon0.09_PT078H.grib2 2026-05-01 15:20 419K
20260501T12Z_MSC_RDPS_AirTemp_IsbL-0250_RLatLon0.09_PT078H.grib2 2026-05-01 15:20 425K
20260501T12Z_MSC_RDPS_AirTemp_IsbL-0275_RLatLon0.09_PT078H.grib2 2026-05-01 15:20 405K
20260501T12Z_MSC_RDPS_AirTemp_IsbL-0300_RLatLon0.09_PT078H.grib2 2026-05-01 15:20 410K
20260501T12Z_MSC_RDPS_AirTemp_IsbL-0350_RLatLon0.09_PT078H.grib2 2026-05-01 15:20 424K
20260501T12Z_MSC_RDPS_AirTemp_IsbL-0400_RLatLon0.09_PT078H.grib2 2026-05-01 15:20 427K
20260501T12Z_MSC_RDPS_AirTemp_IsbL-0450_RLatLon0.09_PT078H.grib2 2026-05-01 15:20 399K
20260501T12Z_MSC_RDPS_AirTemp_IsbL-0500_RLatLon0.09_PT078H.grib2 2026-05-01 15:20 408K
20260501T12Z_MSC_RDPS_AirTemp_IsbL-0550_RLatLon0.09_PT078H.grib2 2026-05-01 15:20 425K
20260501T12Z_MSC_RDPS_AirTemp_IsbL-0600_RLatLon0.09_PT078H.grib2 2026-05-01 15:20 445K
20260501T12Z_MSC_RDPS_AirTemp_IsbL-0650_RLatLon0.09_PT078H.grib2 2026-05-01 15:20 462K
20260501T12Z_MSC_RDPS_AirTemp_IsbL-0700_RLatLon0.09_PT078H.grib2 2026-05-01 15:20 486K
20260501T12Z_MSC_RDPS_AirTemp_IsbL-0750_RLatLon0.09_PT078H.grib2 2026-05-01 15:20 413K
20260501T12Z_MSC_RDPS_AirTemp_IsbL-0800_RLatLon0.09_PT078H.grib2 2026-05-01 15:20 466K
20260501T12Z_MSC_RDPS_AirTemp_IsbL-0850_RLatLon0.09_PT078H.grib2 2026-05-01 15:20 645K
20260501T12Z_MSC_RDPS_AirTemp_IsbL-0875_RLatLon0.09_PT078H.grib2 2026-05-01 15:20 665K
20260501T12Z_MSC_RDPS_AirTemp_IsbL-0900_RLatLon0.09_PT078H.grib2 2026-05-01 15:20 540K
20260501T12Z_MSC_RDPS_AirTemp_IsbL-0925_RLatLon0.09_PT078H.grib2 2026-05-01 15:20 535K
20260501T12Z_MSC_RDPS_AirTemp_IsbL-0950_RLatLon0.09_PT078H.grib2 2026-05-01 15:20 534K
20260501T12Z_MSC_RDPS_AirTemp_IsbL-0970_RLatLon0.09_PT078H.grib2 2026-05-01 15:20 527K
20260501T12Z_MSC_RDPS_AirTemp_IsbL-0985_RLatLon0.09_PT078H.grib2 2026-05-01 15:20 516K
20260501T12Z_MSC_RDPS_AirTemp_IsbL-1000_RLatLon0.09_PT078H.grib2 2026-05-01 15:20 502K
20260501T12Z_MSC_RDPS_AirTemp_IsbL-1015_RLatLon0.09_PT078H.grib2 2026-05-01 15:20 505K
20260501T12Z_MSC_RDPS_Albedo_Sfc_RLatLon0.09_PT078H.grib2 2026-05-01 15:20 156K
20260501T12Z_MSC_RDPS_CAPE_Sfc_RLatLon0.09_PT078H.grib2 2026-05-01 15:20 1.8M
20260501T12Z_MSC_RDPS_CIN_Sfc_RLatLon0.09_PT078H.grib2 2026-05-01 15:20 1.2M
20260501T12Z_MSC_RDPS_CloudWater_EAtm_RLatLon0.09_PT078H.grib2 2026-05-01 15:20 223K
20260501T12Z_MSC_RDPS_ConvectivePrecip-Accum_Sfc_RLatLon0.09_PT078H.grib2 2026-05-01 15:20 1.3M
20260501T12Z_MSC_RDPS_DewPointDepression_AGL-2m_RLatLon0.09_PT078H.grib2 2026-05-01 15:20 425K
20260501T12Z_MSC_RDPS_DewPointDepression_IsbL-0001_RLatLon0.09_PT078H.grib2 2026-05-01 15:20 193
20260501T12Z_MSC_RDPS_DewPointDepression_IsbL-0005_RLatLon0.09_PT078H.grib2 2026-05-01 15:20 193
20260501T12Z_MSC_RDPS_DewPointDepression_IsbL-0010_RLatLon0.09_PT078H.grib2 2026-05-01 15:20 193
20260501T12Z_MSC_RDPS_DewPointDepression_IsbL-0020_RLatLon0.09_PT078H.grib2 2026-05-01 15:20 193
20260501T12Z_MSC_RDPS_DewPointDepression_IsbL-0030_RLatLon0.09_PT078H.grib2 2026-05-01 15:20 193
20260501T12Z_MSC_RDPS_DewPointDepression_IsbL-0050_RLatLon0.09_PT078H.grib2 2026-05-01 15:20 80K
20260501T12Z_MSC_RDPS_DewPointDepression_IsbL-0100_RLatLon0.09_PT078H.grib2 2026-05-01 15:20 116K
20260501T12Z_MSC_RDPS_DewPointDepression_IsbL-0150_RLatLon0.09_PT078H.grib2 2026-05-01 15:20 143K
20260501T12Z_MSC_RDPS_DewPointDepression_IsbL-0175_RLatLon0.09_PT078H.grib2 2026-05-01 15:20 179K
20260501T12Z_MSC_RDPS_DewPointDepression_IsbL-0200_RLatLon0.09_PT078H.grib2 2026-05-01 15:20 220K
20260501T12Z_MSC_RDPS_DewPointDepression_IsbL-0225_RLatLon0.09_PT078H.grib2 2026-05-01 15:20 261K
20260501T12Z_MSC_RDPS_DewPointDepression_IsbL-0250_RLatLon0.09_PT078H.grib2 2026-05-01 15:20 299K
20260501T12Z_MSC_RDPS_DewPointDepression_IsbL-0275_RLatLon0.09_PT078H.grib2 2026-05-01 15:20 306K
20260501T12Z_MSC_RDPS_DewPointDepression_IsbL-0300_RLatLon0.09_PT078H.grib2 2026-05-01 15:20 322K
20260501T12Z_MSC_RDPS_DewPointDepression_IsbL-0350_RLatLon0.09_PT078H.grib2 2026-05-01 15:20 328K
20260501T12Z_MSC_RDPS_DewPointDepression_IsbL-0400_RLatLon0.09_PT078H.grib2 2026-05-01 15:20 340K
20260501T12Z_MSC_RDPS_DewPointDepression_IsbL-0450_RLatLon0.09_PT078H.grib2 2026-05-01 15:20 345K
20260501T12Z_MSC_RDPS_DewPointDepression_IsbL-0500_RLatLon0.09_PT078H.grib2 2026-05-01 15:20 346K
20260501T12Z_MSC_RDPS_DewPointDepression_IsbL-0550_RLatLon0.09_PT078H.grib2 2026-05-01 15:20 353K
20260501T12Z_MSC_RDPS_DewPointDepression_IsbL-0600_RLatLon0.09_PT078H.grib2 2026-05-01 15:20 365K
20260501T12Z_MSC_RDPS_DewPointDepression_IsbL-0650_RLatLon0.09_PT078H.grib2 2026-05-01 15:20 378K
20260501T12Z_MSC_RDPS_DewPointDepression_IsbL-0700_RLatLon0.09_PT078H.grib2 2026-05-01 15:20 393K
20260501T12Z_MSC_RDPS_DewPointDepression_IsbL-0750_RLatLon0.09_PT078H.grib2 2026-05-01 15:20 412K
20260501T12Z_MSC_RDPS_DewPointDepression_IsbL-0800_RLatLon0.09_PT078H.grib2 2026-05-01 15:20 455K
20260501T12Z_MSC_RDPS_DewPointDepression_IsbL-0850_RLatLon0.09_PT078H.grib2 2026-05-01 15:20 487K
20260501T12Z_MSC_RDPS_DewPointDepression_IsbL-0875_RLatLon0.09_PT078H.grib2 2026-05-01 15:20 485K
20260501T12Z_MSC_RDPS_DewPointDepression_IsbL-0900_RLatLon0.09_PT078H.grib2 2026-05-01 15:20 474K
20260501T12Z_MSC_RDPS_DewPointDepression_IsbL-0925_RLatLon0.09_PT078H.grib2 2026-05-01 15:20 458K
20260501T12Z_MSC_RDPS_DewPointDepression_IsbL-0950_RLatLon0.09_PT078H.grib2 2026-05-01 15:20 452K
20260501T12Z_MSC_RDPS_DewPointDepression_IsbL-0970_RLatLon0.09_PT078H.grib2 2026-05-01 15:20 446K
20260501T12Z_MSC_RDPS_DewPointDepression_IsbL-0985_RLatLon0.09_PT078H.grib2 2026-05-01 15:20 443K
20260501T12Z_MSC_RDPS_DewPointDepression_IsbL-1000_RLatLon0.09_PT078H.grib2 2026-05-01 15:20 437K
20260501T12Z_MSC_RDPS_DewPointDepression_IsbL-1015_RLatLon0.09_PT078H.grib2 2026-05-01 15:20 431K
20260501T12Z_MSC_RDPS_DewPoint_AGL-2m_RLatLon0.09_PT078H.grib2 2026-05-01 15:20 402K
20260501T12Z_MSC_RDPS_DownwardLongwaveRadiationFlux-Accum_Sfc_RLatLon0.09_PT078H.grib2 2026-05-01 15:20 436K
20260501T12Z_MSC_RDPS_DownwardShortwaveRadiationFlux-Accum_NTAtm_RLatLon0.09_PT078H.grib2 2026-05-01 15:20 107K
20260501T12Z_MSC_RDPS_DownwardShortwaveRadiationFlux-Accum_Sfc_RLatLon0.09_PT078H.grib2 2026-05-01 15:20 640K
20260501T12Z_MSC_RDPS_FreezingRain-Accum12h_Sfc_RLatLon0.09_PT078H.grib2 2026-05-01 15:20 83K
20260501T12Z_MSC_RDPS_FreezingRain-Accum1h_Sfc_RLatLon0.09_PT078H.grib2 2026-05-01 15:20 24K
20260501T12Z_MSC_RDPS_FreezingRain-Accum24h_Sfc_RLatLon0.09_PT078H.grib2 2026-05-01 15:20 100K
20260501T12Z_MSC_RDPS_FreezingRain-Accum3h_Sfc_RLatLon0.09_PT078H.grib2 2026-05-01 15:20 35K
20260501T12Z_MSC_RDPS_FreezingRain-Accum6h_Sfc_RLatLon0.09_PT078H.grib2 2026-05-01 15:20 55K
20260501T12Z_MSC_RDPS_FreezingRain-Accum_Sfc_RLatLon0.09_PT078H.grib2 2026-05-01 15:20 208K
20260501T12Z_MSC_RDPS_GeopotentialHeight_IsbL-0001_RLatLon0.09_PT078H.grib2 2026-05-01 15:20 356K
20260501T12Z_MSC_RDPS_GeopotentialHeight_IsbL-0005_RLatLon0.09_PT078H.grib2 2026-05-01 15:20 307K
20260501T12Z_MSC_RDPS_GeopotentialHeight_IsbL-0010_RLatLon0.09_PT078H.grib2 2026-05-01 15:20 308K
20260501T12Z_MSC_RDPS_GeopotentialHeight_IsbL-0020_RLatLon0.09_PT078H.grib2 2026-05-01 15:20 405K
20260501T12Z_MSC_RDPS_GeopotentialHeight_IsbL-0030_RLatLon0.09_PT078H.grib2 2026-05-01 15:20 408K
20260501T12Z_MSC_RDPS_GeopotentialHeight_IsbL-0050_RLatLon0.09_PT078H.grib2 2026-05-01 15:20 312K
20260501T12Z_MSC_RDPS_GeopotentialHeight_IsbL-0100_RLatLon0.09_PT078H.grib2 2026-05-01 15:20 288K
20260501T12Z_MSC_RDPS_GeopotentialHeight_IsbL-0150_RLatLon0.09_PT078H.grib2 2026-05-01 15:20 232K
20260501T12Z_MSC_RDPS_GeopotentialHeight_IsbL-0175_RLatLon0.09_PT078H.grib2 2026-05-01 15:20 234K
20260501T12Z_MSC_RDPS_GeopotentialHeight_IsbL-0200_RLatLon0.09_PT078H.grib2 2026-05-01 15:20 267K
20260501T12Z_MSC_RDPS_GeopotentialHeight_IsbL-0225_RLatLon0.09_PT078H.grib2 2026-05-01 15:20 268K
20260501T12Z_MSC_RDPS_GeopotentialHeight_IsbL-0250_RLatLon0.09_PT078H.grib2 2026-05-01 15:20 269K
20260501T12Z_MSC_RDPS_GeopotentialHeight_IsbL-0275_RLatLon0.09_PT078H.grib2 2026-05-01 15:20 267K
20260501T12Z_MSC_RDPS_GeopotentialHeight_IsbL-0300_RLatLon0.09_PT078H.grib2 2026-05-01 15:20 236K
20260501T12Z_MSC_RDPS_GeopotentialHeight_IsbL-0350_RLatLon0.09_PT078H.grib2 2026-05-01 15:20 232K
20260501T12Z_MSC_RDPS_GeopotentialHeight_IsbL-0400_RLatLon0.09_PT078H.grib2 2026-05-01 15:20 302K
20260501T12Z_MSC_RDPS_GeopotentialHeight_IsbL-0450_RLatLon0.09_PT078H.grib2 2026-05-01 15:20 298K
20260501T12Z_MSC_RDPS_GeopotentialHeight_IsbL-0500_RLatLon0.09_PT078H.grib2 2026-05-01 15:20 294K
20260501T12Z_MSC_RDPS_GeopotentialHeight_IsbL-0550_RLatLon0.09_PT078H.grib2 2026-05-01 15:20 290K
20260501T12Z_MSC_RDPS_GeopotentialHeight_IsbL-0600_RLatLon0.09_PT078H.grib2 2026-05-01 15:20 285K
20260501T12Z_MSC_RDPS_GeopotentialHeight_IsbL-0650_RLatLon0.09_PT078H.grib2 2026-05-01 15:20 256K
20260501T12Z_MSC_RDPS_GeopotentialHeight_IsbL-0700_RLatLon0.09_PT078H.grib2 2026-05-01 15:20 257K
20260501T12Z_MSC_RDPS_GeopotentialHeight_IsbL-0750_RLatLon0.09_PT078H.grib2 2026-05-01 15:20 342K
20260501T12Z_MSC_RDPS_GeopotentialHeight_IsbL-0800_RLatLon0.09_PT078H.grib2 2026-05-01 15:20 351K
20260501T12Z_MSC_RDPS_GeopotentialHeight_IsbL-0850_RLatLon0.09_PT078H.grib2 2026-05-01 15:20 395K
20260501T12Z_MSC_RDPS_GeopotentialHeight_IsbL-0875_RLatLon0.09_PT078H.grib2 2026-05-01 15:20 365K
20260501T12Z_MSC_RDPS_GeopotentialHeight_IsbL-0900_RLatLon0.09_PT078H.grib2 2026-05-01 15:20 369K
20260501T12Z_MSC_RDPS_GeopotentialHeight_IsbL-0925_RLatLon0.09_PT078H.grib2 2026-05-01 15:20 372K
20260501T12Z_MSC_RDPS_GeopotentialHeight_IsbL-0950_RLatLon0.09_PT078H.grib2 2026-05-01 15:20 375K
20260501T12Z_MSC_RDPS_GeopotentialHeight_IsbL-0970_RLatLon0.09_PT078H.grib2 2026-05-01 15:20 381K
20260501T12Z_MSC_RDPS_GeopotentialHeight_IsbL-0985_RLatLon0.09_PT078H.grib2 2026-05-01 15:20 391K
20260501T12Z_MSC_RDPS_GeopotentialHeight_IsbL-1000_RLatLon0.09_PT078H.grib2 2026-05-01 15:20 404K
20260501T12Z_MSC_RDPS_GeopotentialHeight_IsbL-1015_RLatLon0.09_PT078H.grib2 2026-05-01 15:20 419K
20260501T12Z_MSC_RDPS_Humidex_Sfc_RLatLon0.09_PT078H.grib2 2026-05-01 15:20 2.4M
20260501T12Z_MSC_RDPS_IcePellets-Accum12h_Sfc_RLatLon0.09_PT078H.grib2 2026-05-01 15:20 8.0K
20260501T12Z_MSC_RDPS_IcePellets-Accum1h_Sfc_RLatLon0.09_PT078H.grib2 2026-05-01 15:20 4.8K
20260501T12Z_MSC_RDPS_IcePellets-Accum24h_Sfc_RLatLon0.09_PT078H.grib2 2026-05-01 15:20 7.7K
20260501T12Z_MSC_RDPS_IcePellets-Accum3h_Sfc_RLatLon0.09_PT078H.grib2 2026-05-01 15:20 5.9K
20260501T12Z_MSC_RDPS_IcePellets-Accum6h_Sfc_RLatLon0.09_PT078H.grib2 2026-05-01 15:20 7.0K
20260501T12Z_MSC_RDPS_IcePellets-Accum_Sfc_RLatLon0.09_PT078H.grib2 2026-05-01 15:20 28K
20260501T12Z_MSC_RDPS_KIndex_Sfc_RLatLon0.09_PT078H.grib2 2026-05-01 15:20 2.5M
20260501T12Z_MSC_RDPS_LatentHeatNetFlux_Sfc_RLatLon0.09_PT078H.grib2 2026-05-01 15:20 320K
20260501T12Z_MSC_RDPS_LiftedIndex-MU-VT_IsbL-0500_RLatLon0.09_PT078H.grib2 2026-05-01 15:20 2.4M
20260501T12Z_MSC_RDPS_NetLongwaveRadiationFlux-Accum_Sfc_RLatLon0.09_PT078H.grib2 2026-05-01 15:20 487K
20260501T12Z_MSC_RDPS_NetShortwaveRadiationFlux-Accum_Sfc_RLatLon0.09_PT078H.grib2 2026-05-01 15:20 643K
20260501T12Z_MSC_RDPS_PlanetaryBoundaryLayerHeight_Sfc_RLatLon0.09_PT078H.grib2 2026-05-01 15:20 1.0M
20260501T12Z_MSC_RDPS_Precip-Accum12h_Sfc_RLatLon0.09_PT078H.grib2 2026-05-01 15:20 1.6M
20260501T12Z_MSC_RDPS_Precip-Accum1h_Sfc_RLatLon0.09_PT078H.grib2 2026-05-01 15:20 1.2M
20260501T12Z_MSC_RDPS_Precip-Accum24h_Sfc_RLatLon0.09_PT078H.grib2 2026-05-01 15:20 1.9M
20260501T12Z_MSC_RDPS_Precip-Accum3h_Sfc_RLatLon0.09_PT078H.grib2 2026-05-01 15:20 1.4M
20260501T12Z_MSC_RDPS_Precip-Accum6h_Sfc_RLatLon0.09_PT078H.grib2 2026-05-01 15:20 1.6M
20260501T12Z_MSC_RDPS_Precip-Accum_Sfc_RLatLon0.09_PT078H.grib2 2026-05-01 15:20 2.2M
20260501T12Z_MSC_RDPS_PrecipRate_Sfc_RLatLon0.09_PT078H.grib2 2026-05-01 15:20 178K
20260501T12Z_MSC_RDPS_PrecipType-Instant_Sfc_RLatLon0.09_PT078H.grib2 2026-05-01 15:20 601K
20260501T12Z_MSC_RDPS_Pressure-Trend3h_Sfc_RLatLon0.09_PT078H.grib2 2026-05-01 15:20 1.2M
20260501T12Z_MSC_RDPS_Pressure_MSL_RLatLon0.09_PT078H.grib2 2026-05-01 15:20 331K
20260501T12Z_MSC_RDPS_Pressure_PVU-1.5_RLatLon0.09_PT078H.grib2 2026-05-01 15:20 2.5M
20260501T12Z_MSC_RDPS_Pressure_PVU-1_RLatLon0.09_PT078H.grib2 2026-05-01 15:20 2.4M
20260501T12Z_MSC_RDPS_Pressure_PVU-2_RLatLon0.09_PT078H.grib2 2026-05-01 15:20 2.4M
20260501T12Z_MSC_RDPS_Pressure_Sfc_RLatLon0.09_PT078H.grib2 2026-05-01 15:20 499K
20260501T12Z_MSC_RDPS_RadiativeTemp_Sfc_RLatLon0.09_PT078H.grib2 2026-05-01 15:20 328K
20260501T12Z_MSC_RDPS_Rain-Accum12h_Sfc_RLatLon0.09_PT078H.grib2 2026-05-01 15:20 1.1M
20260501T12Z_MSC_RDPS_Rain-Accum1h_Sfc_RLatLon0.09_PT078H.grib2 2026-05-01 15:20 625K
20260501T12Z_MSC_RDPS_Rain-Accum24h_Sfc_RLatLon0.09_PT078H.grib2 2026-05-01 15:20 1.4M
20260501T12Z_MSC_RDPS_Rain-Accum3h_Sfc_RLatLon0.09_PT078H.grib2 2026-05-01 15:20 721K
20260501T12Z_MSC_RDPS_Rain-Accum6h_Sfc_RLatLon0.09_PT078H.grib2 2026-05-01 15:20 1.0M
20260501T12Z_MSC_RDPS_Rain-Accum_Sfc_RLatLon0.09_PT078H.grib2 2026-05-01 15:20 1.9M
20260501T12Z_MSC_RDPS_RelativeHumidity_AGL-2m_RLatLon0.09_PT078H.grib2 2026-05-01 15:20 1.0M
20260501T12Z_MSC_RDPS_RelativeHumidity_IsbL-0010_RLatLon0.09_PT078H.grib2 2026-05-01 15:20 684K
20260501T12Z_MSC_RDPS_RelativeHumidity_IsbL-0020_RLatLon0.09_PT078H.grib2 2026-05-01 15:20 648K
20260501T12Z_MSC_RDPS_RelativeHumidity_IsbL-0030_RLatLon0.09_PT078H.grib2 2026-05-01 15:20 602K
20260501T12Z_MSC_RDPS_RelativeHumidity_IsbL-0050_RLatLon0.09_PT078H.grib2 2026-05-01 15:20 361K
20260501T12Z_MSC_RDPS_RelativeHumidity_IsbL-0100_RLatLon0.09_PT078H.grib2 2026-05-01 15:20 279K
20260501T12Z_MSC_RDPS_RelativeHumidity_IsbL-0150_RLatLon0.09_PT078H.grib2 2026-05-01 15:20 409K
20260501T12Z_MSC_RDPS_RelativeHumidity_IsbL-0175_RLatLon0.09_PT078H.grib2 2026-05-01 15:20 475K
20260501T12Z_MSC_RDPS_RelativeHumidity_IsbL-0200_RLatLon0.09_PT078H.grib2 2026-05-01 15:20 553K
20260501T12Z_MSC_RDPS_RelativeHumidity_IsbL-0225_RLatLon0.09_PT078H.grib2 2026-05-01 15:20 624K
20260501T12Z_MSC_RDPS_RelativeHumidity_IsbL-0250_RLatLon0.09_PT078H.grib2 2026-05-01 15:20 687K
20260501T12Z_MSC_RDPS_RelativeHumidity_IsbL-0275_RLatLon0.09_PT078H.grib2 2026-05-01 15:20 708K
20260501T12Z_MSC_RDPS_RelativeHumidity_IsbL-0300_RLatLon0.09_PT078H.grib2 2026-05-01 15:20 747K
20260501T12Z_MSC_RDPS_RelativeHumidity_IsbL-0350_RLatLon0.09_PT078H.grib2 2026-05-01 15:20 774K
20260501T12Z_MSC_RDPS_RelativeHumidity_IsbL-0400_RLatLon0.09_PT078H.grib2 2026-05-01 15:20 791K
20260501T12Z_MSC_RDPS_RelativeHumidity_IsbL-0450_RLatLon0.09_PT078H.grib2 2026-05-01 15:20 793K
20260501T12Z_MSC_RDPS_RelativeHumidity_IsbL-0500_RLatLon0.09_PT078H.grib2 2026-05-01 15:20 793K
20260501T12Z_MSC_RDPS_RelativeHumidity_IsbL-0550_RLatLon0.09_PT078H.grib2 2026-05-01 15:20 806K
20260501T12Z_MSC_RDPS_RelativeHumidity_IsbL-0600_RLatLon0.09_PT078H.grib2 2026-05-01 15:20 829K
20260501T12Z_MSC_RDPS_RelativeHumidity_IsbL-0650_RLatLon0.09_PT078H.grib2 2026-05-01 15:20 845K
20260501T12Z_MSC_RDPS_RelativeHumidity_IsbL-0700_RLatLon0.09_PT078H.grib2 2026-05-01 15:20 873K
20260501T12Z_MSC_RDPS_RelativeHumidity_IsbL-0750_RLatLon0.09_PT078H.grib2 2026-05-01 15:20 921K
20260501T12Z_MSC_RDPS_RelativeHumidity_IsbL-0800_RLatLon0.09_PT078H.grib2 2026-05-01 15:20 1.0M
20260501T12Z_MSC_RDPS_RelativeHumidity_IsbL-0850_RLatLon0.09_PT078H.grib2 2026-05-01 15:20 1.0M
20260501T12Z_MSC_RDPS_RelativeHumidity_IsbL-0875_RLatLon0.09_PT078H.grib2 2026-05-01 15:20 1.1M
20260501T12Z_MSC_RDPS_RelativeHumidity_IsbL-0900_RLatLon0.09_PT078H.grib2 2026-05-01 15:20 1.1M
20260501T12Z_MSC_RDPS_RelativeHumidity_IsbL-0925_RLatLon0.09_PT078H.grib2 2026-05-01 15:20 1.1M
20260501T12Z_MSC_RDPS_RelativeHumidity_IsbL-0950_RLatLon0.09_PT078H.grib2 2026-05-01 15:20 1.1M
20260501T12Z_MSC_RDPS_RelativeHumidity_IsbL-0970_RLatLon0.09_PT078H.grib2 2026-05-01 15:20 1.1M
20260501T12Z_MSC_RDPS_RelativeHumidity_IsbL-0985_RLatLon0.09_PT078H.grib2 2026-05-01 15:20 1.0M
20260501T12Z_MSC_RDPS_RelativeHumidity_IsbL-1000_RLatLon0.09_PT078H.grib2 2026-05-01 15:20 1.0M
20260501T12Z_MSC_RDPS_RelativeHumidity_IsbL-1015_RLatLon0.09_PT078H.grib2 2026-05-01 15:20 1.0M
20260501T12Z_MSC_RDPS_Runoff-Accum_Sfc_RLatLon0.09_PT078H.grib2 2026-05-01 15:20 71K
20260501T12Z_MSC_RDPS_SWEATIndex_Sfc_RLatLon0.09_PT078H.grib2 2026-05-01 15:20 2.5M
20260501T12Z_MSC_RDPS_SeeingIndex_EAtm_RLatLon0.09_PT078H.grib2 2026-05-01 15:20 1.0M
20260501T12Z_MSC_RDPS_SensibleHeatNetFlux_Sfc_RLatLon0.09_PT078H.grib2 2026-05-01 15:20 372K
20260501T12Z_MSC_RDPS_ShowalterIndex_IsbL-0500_RLatLon0.09_PT078H.grib2 2026-05-01 15:20 2.6M
20260501T12Z_MSC_RDPS_SkyTransparencyIndex_EAtm_RLatLon0.09_PT078H.grib2 2026-05-01 15:20 713K
20260501T12Z_MSC_RDPS_Snow-Accum12h_Sfc_RLatLon0.09_PT078H.grib2 2026-05-01 15:20 621K
20260501T12Z_MSC_RDPS_Snow-Accum1h_Sfc_RLatLon0.09_PT078H.grib2 2026-05-01 15:20 465K
20260501T12Z_MSC_RDPS_Snow-Accum24h_Sfc_RLatLon0.09_PT078H.grib2 2026-05-01 15:20 663K
20260501T12Z_MSC_RDPS_Snow-Accum3h_Sfc_RLatLon0.09_PT078H.grib2 2026-05-01 15:20 470K
20260501T12Z_MSC_RDPS_Snow-Accum6h_Sfc_RLatLon0.09_PT078H.grib2 2026-05-01 15:20 603K
20260501T12Z_MSC_RDPS_Snow-Accum_Sfc_RLatLon0.09_PT078H.grib2 2026-05-01 15:20 790K
20260501T12Z_MSC_RDPS_SnowDensity_Sfc_RLatLon0.09_PT078H.grib2 2026-05-01 15:20 175K
20260501T12Z_MSC_RDPS_SnowDepth_Sfc_RLatLon0.09_PT078H.grib2 2026-05-01 15:20 656K
20260501T12Z_MSC_RDPS_SoilTemp_DBS-0to10cm_RLatLon0.09_PT078H.grib2 2026-05-01 15:20 246K
20260501T12Z_MSC_RDPS_SoilTemp_Sfc_RLatLon0.09_PT078H.grib2 2026-05-01 15:20 300K
20260501T12Z_MSC_RDPS_SoilVolumetricIceContent_Sfc_RLatLon0.09_PT078H.grib2 2026-05-01 15:20 155K
20260501T12Z_MSC_RDPS_SoilVolumetricWaterContent_DBS-0to10cm_RLatLon0.09_PT078H.grib2 2026-05-01 15:20 276K
20260501T12Z_MSC_RDPS_SoilVolumetricWaterContent_DBS-0to1cm_RLatLon0.09_PT078H.grib2 2026-05-01 15:20 344K
20260501T12Z_MSC_RDPS_SpecificHumidity_AGL-120m_RLatLon0.09_PT078H.grib2 2026-05-01 15:20 503K
20260501T12Z_MSC_RDPS_SpecificHumidity_AGL-2m_RLatLon0.09_PT078H.grib2 2026-05-01 15:20 676K
20260501T12Z_MSC_RDPS_SpecificHumidity_AGL-40m_RLatLon0.09_PT078H.grib2 2026-05-01 15:20 509K
20260501T12Z_MSC_RDPS_SpecificHumidity_AGL-80m_RLatLon0.09_PT078H.grib2 2026-05-01 15:20 505K
20260501T12Z_MSC_RDPS_SpecificHumidity_IsbL-0001_RLatLon0.09_PT078H.grib2 2026-05-01 15:20 377K
20260501T12Z_MSC_RDPS_SpecificHumidity_IsbL-0005_RLatLon0.09_PT078H.grib2 2026-05-01 15:20 360K
20260501T12Z_MSC_RDPS_SpecificHumidity_IsbL-0010_RLatLon0.09_PT078H.grib2 2026-05-01 15:20 392K
20260501T12Z_MSC_RDPS_SpecificHumidity_IsbL-0020_RLatLon0.09_PT078H.grib2 2026-05-01 15:20 367K
20260501T12Z_MSC_RDPS_SpecificHumidity_IsbL-0030_RLatLon0.09_PT078H.grib2 2026-05-01 15:20 473K
20260501T12Z_MSC_RDPS_SpecificHumidity_IsbL-0050_RLatLon0.09_PT078H.grib2 2026-05-01 15:20 440K
20260501T12Z_MSC_RDPS_SpecificHumidity_IsbL-0100_RLatLon0.09_PT078H.grib2 2026-05-01 15:20 528K
20260501T12Z_MSC_RDPS_SpecificHumidity_IsbL-0150_RLatLon0.09_PT078H.grib2 2026-05-01 15:20 446K
20260501T12Z_MSC_RDPS_SpecificHumidity_IsbL-0175_RLatLon0.09_PT078H.grib2 2026-05-01 15:20 439K
20260501T12Z_MSC_RDPS_SpecificHumidity_IsbL-0200_RLatLon0.09_PT078H.grib2 2026-05-01 15:20 474K
20260501T12Z_MSC_RDPS_SpecificHumidity_IsbL-0225_RLatLon0.09_PT078H.grib2 2026-05-01 15:20 476K
20260501T12Z_MSC_RDPS_SpecificHumidity_IsbL-0250_RLatLon0.09_PT078H.grib2 2026-05-01 15:20 520K
20260501T12Z_MSC_RDPS_SpecificHumidity_IsbL-0275_RLatLon0.09_PT078H.grib2 2026-05-01 15:20 477K
20260501T12Z_MSC_RDPS_SpecificHumidity_IsbL-0300_RLatLon0.09_PT078H.grib2 2026-05-01 15:20 447K
20260501T12Z_MSC_RDPS_SpecificHumidity_IsbL-0350_RLatLon0.09_PT078H.grib2 2026-05-01 15:20 443K
20260501T12Z_MSC_RDPS_SpecificHumidity_IsbL-0400_RLatLon0.09_PT078H.grib2 2026-05-01 15:20 523K
20260501T12Z_MSC_RDPS_SpecificHumidity_IsbL-0450_RLatLon0.09_PT078H.grib2 2026-05-01 15:20 571K
20260501T12Z_MSC_RDPS_SpecificHumidity_IsbL-0500_RLatLon0.09_PT078H.grib2 2026-05-01 15:20 502K
20260501T12Z_MSC_RDPS_SpecificHumidity_IsbL-0550_RLatLon0.09_PT078H.grib2 2026-05-01 15:20 554K
20260501T12Z_MSC_RDPS_SpecificHumidity_IsbL-0600_RLatLon0.09_PT078H.grib2 2026-05-01 15:20 624K
20260501T12Z_MSC_RDPS_SpecificHumidity_IsbL-0650_RLatLon0.09_PT078H.grib2 2026-05-01 15:20 546K
20260501T12Z_MSC_RDPS_SpecificHumidity_IsbL-0700_RLatLon0.09_PT078H.grib2 2026-05-01 15:20 594K
20260501T12Z_MSC_RDPS_SpecificHumidity_IsbL-0750_RLatLon0.09_PT078H.grib2 2026-05-01 15:20 663K
20260501T12Z_MSC_RDPS_SpecificHumidity_IsbL-0800_RLatLon0.09_PT078H.grib2 2026-05-01 15:20 742K
20260501T12Z_MSC_RDPS_SpecificHumidity_IsbL-0850_RLatLon0.09_PT078H.grib2 2026-05-01 15:20 826K
20260501T12Z_MSC_RDPS_SpecificHumidity_IsbL-0875_RLatLon0.09_PT078H.grib2 2026-05-01 15:20 849K
20260501T12Z_MSC_RDPS_SpecificHumidity_IsbL-0900_RLatLon0.09_PT078H.grib2 2026-05-01 15:20 718K
20260501T12Z_MSC_RDPS_SpecificHumidity_IsbL-0925_RLatLon0.09_PT078H.grib2 2026-05-01 15:20 717K
20260501T12Z_MSC_RDPS_SpecificHumidity_IsbL-0950_RLatLon0.09_PT078H.grib2 2026-05-01 15:20 719K
20260501T12Z_MSC_RDPS_SpecificHumidity_IsbL-0970_RLatLon0.09_PT078H.grib2 2026-05-01 15:20 713K
20260501T12Z_MSC_RDPS_SpecificHumidity_IsbL-0985_RLatLon0.09_PT078H.grib2 2026-05-01 15:20 707K
20260501T12Z_MSC_RDPS_SpecificHumidity_IsbL-1000_RLatLon0.09_PT078H.grib2 2026-05-01 15:20 701K
20260501T12Z_MSC_RDPS_SpecificHumidity_IsbL-1015_RLatLon0.09_PT078H.grib2 2026-05-01 15:20 691K
20260501T12Z_MSC_RDPS_SpecificHumidity_Sfc_RLatLon0.09_PT078H.grib2 2026-05-01 15:20 347K
20260501T12Z_MSC_RDPS_StormRelativeHelicity_EtaL-10000_RLatLon0.09_PT078H.grib2 2026-05-01 15:20 1.1M
20260501T12Z_MSC_RDPS_StormSeverityIndex_EtaL-10000_RLatLon0.09_PT078H.grib2 2026-05-01 15:20 1.0M
20260501T12Z_MSC_RDPS_Thickness_IsbL-0850to0700_RLatLon0.09_PT078H.grib2 2026-05-01 15:20 177K
20260501T12Z_MSC_RDPS_Thickness_IsbL-1000to0500_RLatLon0.09_PT078H.grib2 2026-05-01 15:20 199K
20260501T12Z_MSC_RDPS_Thickness_IsbL-1000to0850_RLatLon0.09_PT078H.grib2 2026-05-01 15:20 267K
20260501T12Z_MSC_RDPS_TotalCloudCover_Sfc_RLatLon0.09_PT078H.grib2 2026-05-01 15:20 654K
20260501T12Z_MSC_RDPS_TotalTotalsIndex_Sfc_RLatLon0.09_PT078H.grib2 2026-05-01 15:20 2.6M
20260501T12Z_MSC_RDPS_UVIndex-ClearSky_Sfc_RLatLon0.09_PT078H.grib2 2026-05-01 15:20 232K
20260501T12Z_MSC_RDPS_UVIndex_Sfc_RLatLon0.09_PT078H.grib2 2026-05-01 15:20 537K
20260501T12Z_MSC_RDPS_UpwardLongwaveRadiationFlux_NTAtm_RLatLon0.09_PT078H.grib2 2026-05-01 15:20 379K
20260501T12Z_MSC_RDPS_UpwardShortwaveRadiationFlux_NTAtm_RLatLon0.09_PT078H.grib2 2026-05-01 15:20 563K
20260501T12Z_MSC_RDPS_VerticalVelocity_IsbL-0250_RLatLon0.09_PT078H.grib2 2026-05-01 15:20 440K
20260501T12Z_MSC_RDPS_VerticalVelocity_IsbL-0500_RLatLon0.09_PT078H.grib2 2026-05-01 15:20 549K
20260501T12Z_MSC_RDPS_VerticalVelocity_IsbL-0700_RLatLon0.09_PT078H.grib2 2026-05-01 15:20 603K
20260501T12Z_MSC_RDPS_VerticalVelocity_IsbL-0850_RLatLon0.09_PT078H.grib2 2026-05-01 15:20 711K
20260501T12Z_MSC_RDPS_VerticalWindShear_EtaL-6500_RLatLon0.09_PT078H.grib2 2026-05-01 15:20 1.2M
20260501T12Z_MSC_RDPS_WindChill_Sfc_RLatLon0.09_PT078H.grib2 2026-05-01 15:20 1.1M
20260501T12Z_MSC_RDPS_WindDir_AGL-10m_RLatLon0.09_PT078H.grib2 2026-05-01 15:20 970K
20260501T12Z_MSC_RDPS_WindDir_AGL-120m_RLatLon0.09_PT078H.grib2 2026-05-01 15:20 616K
20260501T12Z_MSC_RDPS_WindDir_AGL-40m_RLatLon0.09_PT078H.grib2 2026-05-01 15:20 636K
20260501T12Z_MSC_RDPS_WindDir_AGL-80m_RLatLon0.09_PT078H.grib2 2026-05-01 15:20 624K
20260501T12Z_MSC_RDPS_WindDir_IsbL-0001_RLatLon0.09_PT078H.grib2 2026-05-01 15:20 302K
20260501T12Z_MSC_RDPS_WindDir_IsbL-0005_RLatLon0.09_PT078H.grib2 2026-05-01 15:20 394K
20260501T12Z_MSC_RDPS_WindDir_IsbL-0010_RLatLon0.09_PT078H.grib2 2026-05-01 15:20 387K
20260501T12Z_MSC_RDPS_WindDir_IsbL-0020_RLatLon0.09_PT078H.grib2 2026-05-01 15:20 425K
20260501T12Z_MSC_RDPS_WindDir_IsbL-0030_RLatLon0.09_PT078H.grib2 2026-05-01 15:20 420K
20260501T12Z_MSC_RDPS_WindDir_IsbL-0050_RLatLon0.09_PT078H.grib2 2026-05-01 15:20 422K
20260501T12Z_MSC_RDPS_WindDir_IsbL-0100_RLatLon0.09_PT078H.grib2 2026-05-01 15:20 408K
20260501T12Z_MSC_RDPS_WindDir_IsbL-0150_RLatLon0.09_PT078H.grib2 2026-05-01 15:20 400K
20260501T12Z_MSC_RDPS_WindDir_IsbL-0175_RLatLon0.09_PT078H.grib2 2026-05-01 15:20 425K
20260501T12Z_MSC_RDPS_WindDir_IsbL-0200_RLatLon0.09_PT078H.grib2 2026-05-01 15:20 445K
20260501T12Z_MSC_RDPS_WindDir_IsbL-0225_RLatLon0.09_PT078H.grib2 2026-05-01 15:20 452K
20260501T12Z_MSC_RDPS_WindDir_IsbL-0250_RLatLon0.09_PT078H.grib2 2026-05-01 15:20 449K
20260501T12Z_MSC_RDPS_WindDir_IsbL-0275_RLatLon0.09_PT078H.grib2 2026-05-01 15:20 466K
20260501T12Z_MSC_RDPS_WindDir_IsbL-0300_RLatLon0.09_PT078H.grib2 2026-05-01 15:20 465K
20260501T12Z_MSC_RDPS_WindDir_IsbL-0350_RLatLon0.09_PT078H.grib2 2026-05-01 15:20 491K
20260501T12Z_MSC_RDPS_WindDir_IsbL-0400_RLatLon0.09_PT078H.grib2 2026-05-01 15:20 510K
20260501T12Z_MSC_RDPS_WindDir_IsbL-0450_RLatLon0.09_PT078H.grib2 2026-05-01 15:20 517K
20260501T12Z_MSC_RDPS_WindDir_IsbL-0500_RLatLon0.09_PT078H.grib2 2026-05-01 15:20 525K
20260501T12Z_MSC_RDPS_WindDir_IsbL-0550_RLatLon0.09_PT078H.grib2 2026-05-01 15:20 539K
20260501T12Z_MSC_RDPS_WindDir_IsbL-0600_RLatLon0.09_PT078H.grib2 2026-05-01 15:20 570K
20260501T12Z_MSC_RDPS_WindDir_IsbL-0650_RLatLon0.09_PT078H.grib2 2026-05-01 15:20 610K
20260501T12Z_MSC_RDPS_WindDir_IsbL-0700_RLatLon0.09_PT078H.grib2 2026-05-01 15:20 652K
20260501T12Z_MSC_RDPS_WindDir_IsbL-0750_RLatLon0.09_PT078H.grib2 2026-05-01 15:20 701K
20260501T12Z_MSC_RDPS_WindDir_IsbL-0800_RLatLon0.09_PT078H.grib2 2026-05-01 15:20 777K
20260501T12Z_MSC_RDPS_WindDir_IsbL-0850_RLatLon0.09_PT078H.grib2 2026-05-01 15:20 869K
20260501T12Z_MSC_RDPS_WindDir_IsbL-0875_RLatLon0.09_PT078H.grib2 2026-05-01 15:20 900K
20260501T12Z_MSC_RDPS_WindDir_IsbL-0900_RLatLon0.09_PT078H.grib2 2026-05-01 15:20 914K
20260501T12Z_MSC_RDPS_WindDir_IsbL-0925_RLatLon0.09_PT078H.grib2 2026-05-01 15:20 919K
20260501T12Z_MSC_RDPS_WindDir_IsbL-0950_RLatLon0.09_PT078H.grib2 2026-05-01 15:20 915K
20260501T12Z_MSC_RDPS_WindDir_IsbL-0970_RLatLon0.09_PT078H.grib2 2026-05-01 15:20 920K
20260501T12Z_MSC_RDPS_WindDir_IsbL-0985_RLatLon0.09_PT078H.grib2 2026-05-01 15:20 931K
20260501T12Z_MSC_RDPS_WindDir_IsbL-1000_RLatLon0.09_PT078H.grib2 2026-05-01 15:20 946K
20260501T12Z_MSC_RDPS_WindDir_IsbL-1015_RLatLon0.09_PT078H.grib2 2026-05-01 15:20 962K
20260501T12Z_MSC_RDPS_WindGust-Max_AGL-10m_RLatLon0.09_PT078H.grib2 2026-05-01 15:20 1.0M
20260501T12Z_MSC_RDPS_WindGust-Min_AGL-10m_RLatLon0.09_PT078H.grib2 2026-05-01 15:20 1.0M
20260501T12Z_MSC_RDPS_WindGust_AGL-10m_RLatLon0.09_PT078H.grib2 2026-05-01 15:20 1.0M
20260501T12Z_MSC_RDPS_WindSpeed_AGL-10m_RLatLon0.09_PT078H.grib2 2026-05-01 15:20 850K
20260501T12Z_MSC_RDPS_WindSpeed_AGL-120m_RLatLon0.09_PT078H.grib2 2026-05-01 15:20 671K
20260501T12Z_MSC_RDPS_WindSpeed_AGL-40m_RLatLon0.09_PT078H.grib2 2026-05-01 15:20 676K
20260501T12Z_MSC_RDPS_WindSpeed_AGL-80m_RLatLon0.09_PT078H.grib2 2026-05-01 15:20 672K
20260501T12Z_MSC_RDPS_WindSpeed_IsbL-0001_RLatLon0.09_PT078H.grib2 2026-05-01 15:20 259K
20260501T12Z_MSC_RDPS_WindSpeed_IsbL-0005_RLatLon0.09_PT078H.grib2 2026-05-01 15:20 382K
20260501T12Z_MSC_RDPS_WindSpeed_IsbL-0010_RLatLon0.09_PT078H.grib2 2026-05-01 15:20 397K
20260501T12Z_MSC_RDPS_WindSpeed_IsbL-0020_RLatLon0.09_PT078H.grib2 2026-05-01 15:20 324K
20260501T12Z_MSC_RDPS_WindSpeed_IsbL-0030_RLatLon0.09_PT078H.grib2 2026-05-01 15:20 321K
20260501T12Z_MSC_RDPS_WindSpeed_IsbL-0050_RLatLon0.09_PT078H.grib2 2026-05-01 15:20 353K
20260501T12Z_MSC_RDPS_WindSpeed_IsbL-0100_RLatLon0.09_PT078H.grib2 2026-05-01 15:20 478K
20260501T12Z_MSC_RDPS_WindSpeed_IsbL-0150_RLatLon0.09_PT078H.grib2 2026-05-01 15:20 380K
20260501T12Z_MSC_RDPS_WindSpeed_IsbL-0175_RLatLon0.09_PT078H.grib2 2026-05-01 15:20 426K
20260501T12Z_MSC_RDPS_WindSpeed_IsbL-0200_RLatLon0.09_PT078H.grib2 2026-05-01 15:20 442K
20260501T12Z_MSC_RDPS_WindSpeed_IsbL-0225_RLatLon0.09_PT078H.grib2 2026-05-01 15:20 451K
20260501T12Z_MSC_RDPS_WindSpeed_IsbL-0250_RLatLon0.09_PT078H.grib2 2026-05-01 15:20 452K
20260501T12Z_MSC_RDPS_WindSpeed_IsbL-0275_RLatLon0.09_PT078H.grib2 2026-05-01 15:20 466K
20260501T12Z_MSC_RDPS_WindSpeed_IsbL-0300_RLatLon0.09_PT078H.grib2 2026-05-01 15:20 465K
20260501T12Z_MSC_RDPS_WindSpeed_IsbL-0350_RLatLon0.09_PT078H.grib2 2026-05-01 15:20 460K
20260501T12Z_MSC_RDPS_WindSpeed_IsbL-0400_RLatLon0.09_PT078H.grib2 2026-05-01 15:20 463K
20260501T12Z_MSC_RDPS_WindSpeed_IsbL-0450_RLatLon0.09_PT078H.grib2 2026-05-01 15:20 464K
20260501T12Z_MSC_RDPS_WindSpeed_IsbL-0500_RLatLon0.09_PT078H.grib2 2026-05-01 15:20 581K
20260501T12Z_MSC_RDPS_WindSpeed_IsbL-0550_RLatLon0.09_PT078H.grib2 2026-05-01 15:20 581K
20260501T12Z_MSC_RDPS_WindSpeed_IsbL-0600_RLatLon0.09_PT078H.grib2 2026-05-01 15:20 592K
20260501T12Z_MSC_RDPS_WindSpeed_IsbL-0650_RLatLon0.09_PT078H.grib2 2026-05-01 15:20 656K
20260501T12Z_MSC_RDPS_WindSpeed_IsbL-0700_RLatLon0.09_PT078H.grib2 2026-05-01 15:20 680K
20260501T12Z_MSC_RDPS_WindSpeed_IsbL-0750_RLatLon0.09_PT078H.grib2 2026-05-01 15:20 711K
20260501T12Z_MSC_RDPS_WindSpeed_IsbL-0800_RLatLon0.09_PT078H.grib2 2026-05-01 15:20 763K
20260501T12Z_MSC_RDPS_WindSpeed_IsbL-0850_RLatLon0.09_PT078H.grib2 2026-05-01 15:20 829K
20260501T12Z_MSC_RDPS_WindSpeed_IsbL-0875_RLatLon0.09_PT078H.grib2 2026-05-01 15:20 846K
20260501T12Z_MSC_RDPS_WindSpeed_IsbL-0900_RLatLon0.09_PT078H.grib2 2026-05-01 15:20 858K
20260501T12Z_MSC_RDPS_WindSpeed_IsbL-0925_RLatLon0.09_PT078H.grib2 2026-05-01 15:20 867K
20260501T12Z_MSC_RDPS_WindSpeed_IsbL-0950_RLatLon0.09_PT078H.grib2 2026-05-01 15:20 866K
20260501T12Z_MSC_RDPS_WindSpeed_IsbL-0970_RLatLon0.09_PT078H.grib2 2026-05-01 15:20 866K
20260501T12Z_MSC_RDPS_WindSpeed_IsbL-0985_RLatLon0.09_PT078H.grib2 2026-05-01 15:20 863K
20260501T12Z_MSC_RDPS_WindSpeed_IsbL-1000_RLatLon0.09_PT078H.grib2 2026-05-01 15:20 859K
20260501T12Z_MSC_RDPS_WindSpeed_IsbL-1015_RLatLon0.09_PT078H.grib2 2026-05-01 15:20 850K
20260501T12Z_MSC_RDPS_WindU_AGL-10m_RLatLon0.09_PT078H.grib2 2026-05-01 15:20 437K
20260501T12Z_MSC_RDPS_WindU_AGL-120m_RLatLon0.09_PT078H.grib2 2026-05-01 15:20 537K
20260501T12Z_MSC_RDPS_WindU_AGL-40m_RLatLon0.09_PT078H.grib2 2026-05-01 15:20 540K
20260501T12Z_MSC_RDPS_WindU_AGL-80m_RLatLon0.09_PT078H.grib2 2026-05-01 15:20 538K
20260501T12Z_MSC_RDPS_WindU_IsbL-0001_RLatLon0.09_PT078H.grib2 2026-05-01 15:20 297K
20260501T12Z_MSC_RDPS_WindU_IsbL-0005_RLatLon0.09_PT078H.grib2 2026-05-01 15:20 283K
20260501T12Z_MSC_RDPS_WindU_IsbL-0010_RLatLon0.09_PT078H.grib2 2026-05-01 15:20 297K
20260501T12Z_MSC_RDPS_WindU_IsbL-0020_RLatLon0.09_PT078H.grib2 2026-05-01 15:20 355K
20260501T12Z_MSC_RDPS_WindU_IsbL-0030_RLatLon0.09_PT078H.grib2 2026-05-01 15:20 354K
20260501T12Z_MSC_RDPS_WindU_IsbL-0050_RLatLon0.09_PT078H.grib2 2026-05-01 15:20 383K
20260501T12Z_MSC_RDPS_WindU_IsbL-0100_RLatLon0.09_PT078H.grib2 2026-05-01 15:20 434K
20260501T12Z_MSC_RDPS_WindU_IsbL-0150_RLatLon0.09_PT078H.grib2 2026-05-01 15:20 397K
20260501T12Z_MSC_RDPS_WindU_IsbL-0175_RLatLon0.09_PT078H.grib2 2026-05-01 15:20 419K
20260501T12Z_MSC_RDPS_WindU_IsbL-0200_RLatLon0.09_PT078H.grib2 2026-05-01 15:20 436K
20260501T12Z_MSC_RDPS_WindU_IsbL-0225_RLatLon0.09_PT078H.grib2 2026-05-01 15:20 344K
20260501T12Z_MSC_RDPS_WindU_IsbL-0250_RLatLon0.09_PT078H.grib2 2026-05-01 15:20 343K
20260501T12Z_MSC_RDPS_WindU_IsbL-0275_RLatLon0.09_PT078H.grib2 2026-05-01 15:20 355K
20260501T12Z_MSC_RDPS_WindU_IsbL-0300_RLatLon0.09_PT078H.grib2 2026-05-01 15:20 351K
20260501T12Z_MSC_RDPS_WindU_IsbL-0350_RLatLon0.09_PT078H.grib2 2026-05-01 15:20 361K
20260501T12Z_MSC_RDPS_WindU_IsbL-0400_RLatLon0.09_PT078H.grib2 2026-05-01 15:20 468K
20260501T12Z_MSC_RDPS_WindU_IsbL-0450_RLatLon0.09_PT078H.grib2 2026-05-01 15:20 468K
20260501T12Z_MSC_RDPS_WindU_IsbL-0500_RLatLon0.09_PT078H.grib2 2026-05-01 15:20 468K
20260501T12Z_MSC_RDPS_WindU_IsbL-0550_RLatLon0.09_PT078H.grib2 2026-05-01 15:20 470K
20260501T12Z_MSC_RDPS_WindU_IsbL-0600_RLatLon0.09_PT078H.grib2 2026-05-01 15:20 463K
20260501T12Z_MSC_RDPS_WindU_IsbL-0650_RLatLon0.09_PT078H.grib2 2026-05-01 15:20 483K
20260501T12Z_MSC_RDPS_WindU_IsbL-0700_RLatLon0.09_PT078H.grib2 2026-05-01 15:20 505K
20260501T12Z_MSC_RDPS_WindU_IsbL-0750_RLatLon0.09_PT078H.grib2 2026-05-01 15:20 533K
20260501T12Z_MSC_RDPS_WindU_IsbL-0800_RLatLon0.09_PT078H.grib2 2026-05-01 15:20 580K
20260501T12Z_MSC_RDPS_WindU_IsbL-0850_RLatLon0.09_PT078H.grib2 2026-05-01 15:20 637K
20260501T12Z_MSC_RDPS_WindU_IsbL-0875_RLatLon0.09_PT078H.grib2 2026-05-01 15:20 655K
20260501T12Z_MSC_RDPS_WindU_IsbL-0900_RLatLon0.09_PT078H.grib2 2026-05-01 15:20 663K
20260501T12Z_MSC_RDPS_WindU_IsbL-0925_RLatLon0.09_PT078H.grib2 2026-05-01 15:20 666K
20260501T12Z_MSC_RDPS_WindU_IsbL-0950_RLatLon0.09_PT078H.grib2 2026-05-01 15:20 802K
20260501T12Z_MSC_RDPS_WindU_IsbL-0970_RLatLon0.09_PT078H.grib2 2026-05-01 15:20 799K
20260501T12Z_MSC_RDPS_WindU_IsbL-0985_RLatLon0.09_PT078H.grib2 2026-05-01 15:20 795K
20260501T12Z_MSC_RDPS_WindU_IsbL-1000_RLatLon0.09_PT078H.grib2 2026-05-01 15:20 792K
20260501T12Z_MSC_RDPS_WindU_IsbL-1015_RLatLon0.09_PT078H.grib2 2026-05-01 15:20 834K
20260501T12Z_MSC_RDPS_WindV_AGL-10m_RLatLon0.09_PT078H.grib2 2026-05-01 15:20 440K
20260501T12Z_MSC_RDPS_WindV_AGL-120m_RLatLon0.09_PT078H.grib2 2026-05-01 15:20 537K
20260501T12Z_MSC_RDPS_WindV_AGL-40m_RLatLon0.09_PT078H.grib2 2026-05-01 15:20 542K
20260501T12Z_MSC_RDPS_WindV_AGL-80m_RLatLon0.09_PT078H.grib2 2026-05-01 15:20 539K
20260501T12Z_MSC_RDPS_WindV_IsbL-0001_RLatLon0.09_PT078H.grib2 2026-05-01 15:20 252K
20260501T12Z_MSC_RDPS_WindV_IsbL-0005_RLatLon0.09_PT078H.grib2 2026-05-01 15:20 286K
20260501T12Z_MSC_RDPS_WindV_IsbL-0010_RLatLon0.09_PT078H.grib2 2026-05-01 15:20 389K
20260501T12Z_MSC_RDPS_WindV_IsbL-0020_RLatLon0.09_PT078H.grib2 2026-05-01 15:20 318K
20260501T12Z_MSC_RDPS_WindV_IsbL-0030_RLatLon0.09_PT078H.grib2 2026-05-01 15:20 316K
20260501T12Z_MSC_RDPS_WindV_IsbL-0050_RLatLon0.09_PT078H.grib2 2026-05-01 15:20 347K
20260501T12Z_MSC_RDPS_WindV_IsbL-0100_RLatLon0.09_PT078H.grib2 2026-05-01 15:20 335K
20260501T12Z_MSC_RDPS_WindV_IsbL-0150_RLatLon0.09_PT078H.grib2 2026-05-01 15:20 396K
20260501T12Z_MSC_RDPS_WindV_IsbL-0175_RLatLon0.09_PT078H.grib2 2026-05-01 15:20 324K
20260501T12Z_MSC_RDPS_WindV_IsbL-0200_RLatLon0.09_PT078H.grib2 2026-05-01 15:20 362K
20260501T12Z_MSC_RDPS_WindV_IsbL-0225_RLatLon0.09_PT078H.grib2 2026-05-01 15:20 367K
20260501T12Z_MSC_RDPS_WindV_IsbL-0250_RLatLon0.09_PT078H.grib2 2026-05-01 15:20 367K
20260501T12Z_MSC_RDPS_WindV_IsbL-0275_RLatLon0.09_PT078H.grib2 2026-05-01 15:20 378K
20260501T12Z_MSC_RDPS_WindV_IsbL-0300_RLatLon0.09_PT078H.grib2 2026-05-01 15:20 376K
20260501T12Z_MSC_RDPS_WindV_IsbL-0350_RLatLon0.09_PT078H.grib2 2026-05-01 15:20 360K
20260501T12Z_MSC_RDPS_WindV_IsbL-0400_RLatLon0.09_PT078H.grib2 2026-05-01 15:20 363K
20260501T12Z_MSC_RDPS_WindV_IsbL-0450_RLatLon0.09_PT078H.grib2 2026-05-01 15:20 364K
20260501T12Z_MSC_RDPS_WindV_IsbL-0500_RLatLon0.09_PT078H.grib2 2026-05-01 15:20 465K
20260501T12Z_MSC_RDPS_WindV_IsbL-0550_RLatLon0.09_PT078H.grib2 2026-05-01 15:20 467K
20260501T12Z_MSC_RDPS_WindV_IsbL-0600_RLatLon0.09_PT078H.grib2 2026-05-01 15:20 477K
20260501T12Z_MSC_RDPS_WindV_IsbL-0650_RLatLon0.09_PT078H.grib2 2026-05-01 15:20 495K
20260501T12Z_MSC_RDPS_WindV_IsbL-0700_RLatLon0.09_PT078H.grib2 2026-05-01 15:20 516K
20260501T12Z_MSC_RDPS_WindV_IsbL-0750_RLatLon0.09_PT078H.grib2 2026-05-01 15:20 541K
20260501T12Z_MSC_RDPS_WindV_IsbL-0800_RLatLon0.09_PT078H.grib2 2026-05-01 15:20 584K
20260501T12Z_MSC_RDPS_WindV_IsbL-0850_RLatLon0.09_PT078H.grib2 2026-05-01 15:20 630K
20260501T12Z_MSC_RDPS_WindV_IsbL-0875_RLatLon0.09_PT078H.grib2 2026-05-01 15:20 650K
20260501T12Z_MSC_RDPS_WindV_IsbL-0900_RLatLon0.09_PT078H.grib2 2026-05-01 15:20 659K
20260501T12Z_MSC_RDPS_WindV_IsbL-0925_RLatLon0.09_PT078H.grib2 2026-05-01 15:20 666K
20260501T12Z_MSC_RDPS_WindV_IsbL-0950_RLatLon0.09_PT078H.grib2 2026-05-01 15:20 662K
20260501T12Z_MSC_RDPS_WindV_IsbL-0970_RLatLon0.09_PT078H.grib2 2026-05-01 15:20 661K
20260501T12Z_MSC_RDPS_WindV_IsbL-0985_RLatLon0.09_PT078H.grib2 2026-05-01 15:20 800K
20260501T12Z_MSC_RDPS_WindV_IsbL-1000_RLatLon0.09_PT078H.grib2 2026-05-01 15:20 797K
20260501T12Z_MSC_RDPS_WindV_IsbL-1015_RLatLon0.09_PT078H.grib2 2026-05-01 15:20 790K